Flag for Colombia Weather past 2 weeks in Manizales, Colombia

Now
73 °F

Passing clouds.


Feels Like: 75 °F
Forecast: 57 / 80 °F
Wind: 3 mph from North

Location: Pereira / Matecana

Current Time: Jul 4, 2015 at 12:15:13 AM

Latest Report: Jul 3, 2015 at 11:00 PM


Visibility: N/A

Pressure: 29.97 "Hg (23.41 "Hg at 2139m altitude)

Humidity: 74%

Dew point: 64 °F

Location of ManizalesLocation

Historic Weather in Manizales — Graph

°F

Manizales temperature yesterday

Maximum temperature yesterday: 90 °F (at 2:00 PM)
Minimum temperature yesterday: 66 °F (at 6:00 AM)
Average temperature yesterday: 78 °F

Past Weeks' High & Low Weather Summary

 TemperatureHumidityPressure
High91 °F (Jun 24, 2:00 PM)88% (Jun 22, 5:00 AM)32.99 "Hg (Jun 22, 5:00 AM)
Low64 °F (Jun 29, 6:00 AM)31% (Jun 23, 3:00 PM)29.35 "Hg (Jul 1, 2:00 PM)
Average77 °F59%30.01 "Hg
* Reported Jun 18 11:00 PM — Jul 3 11:00 PM, Manizales, Weather by CustomWeather, © 2015

Note: Actual official high and low records may vary slightly from our data, if they occured in-between our weather recording intervals... More about our weather records

Advertising

Manizales weather history for previous 24 hours

 ConditionsComfort  
Time TempWeatherWind HumidityBarometerVisibility
11:00 PM
Fri, Jul 3
73 °FPassing clouds.3 mph74%29.97 "HgN/A
10:00 PM75 °FPassing clouds.5 mph69%29.95 "HgN/A
9:00 PM75 °FPassing clouds.9 mph69%29.92 "HgN/A
8:00 PM77 °FPassing clouds.7 mph57%29.91 "HgN/A
7:00 PM81 °FPassing clouds.5 mph48%29.87 "HgN/A
6:00 PM84 °FPassing clouds.5 mph43%29.85 "HgN/A
5:00 PM88 °FPassing clouds.9 mph38%29.83 "HgN/A
4:00 PM90 °FPassing clouds.7 mph36%29.84 "HgN/A
3:00 PM88 °FPassing clouds.7 mph38%29.85 "HgN/A
2:00 PM90 °FPassing clouds.9 mph38%29.87 "HgN/A
1:00 PM88 °FScattered clouds.5 mph43%29.92 "HgN/A
12:00 PM86 °FPassing clouds.5 mph49%29.95 "HgN/A
11:00 AM82 °FPassing clouds.7 mph55%29.97 "HgN/A
10:00 AM79 °FPassing clouds.3 mph58%30.00 "HgN/A
9:00 AM75 °FPassing clouds.3 mph65%30.00 "HgN/A
8:00 AM73 °FPassing clouds.3 mph69%29.98 "HgN/A
7:00 AM68 °FPassing clouds.7 mph78%29.97 "HgN/A
6:00 AM66 °FPassing clouds.5 mph83%29.96 "HgN/A
5:00 AM68 °FPassing clouds.8 mph78%29.95 "HgN/A
1:00 AM70 °FPassing clouds.8 mph69%29.95 "HgN/A
12:00 AM72 °FPassing clouds.8 mph65%29.95 "HgN/A
Weather by CustomWeather, © 2015

See weather overviewHow to use our weather pages